| time (UTC) | temp F | wind direction | speed MPH | gust MPH | rain 1hr in | rain 24hr in | rain mn in | humidity % | barometer mb |
| 20260503231423 | 76 | 180 | 2.0 | 5.0 | 0.00 | 0.00 | 0.00 | 40 | 1010.4 |
| 20260503230522 | 76 | 168 | 1.0 | 5.0 | 0.00 | 0.00 | 0.00 | 38 | 1010.1 |
| 20260503225525 | 78 | 175 | 0.0 | 5.0 | 0.00 | 0.00 | 0.00 | 37 | 1010.4 |
| 20260503224524 | 79 | 157 | 1.0 | 2.0 | 0.00 | 0.00 | 0.00 | 37 | 1010.1 |
| 20260503223523 | 80 | 173 | 2.0 | 6.0 | 0.00 | 0.00 | 0.00 | 37 | 1010.4 |
| 20260503222523 | 80 | 180 | 2.0 | 5.0 | 0.00 | 0.00 | 0.00 | 37 | 1010.4 |
| 20260503220526 | 80 | 180 | 2.0 | 4.0 | 0.00 | 0.00 | 0.00 | 36 | 1010.1 |
| 20260503215524 | 80 | 180 | 2.0 | 5.0 | 0.00 | 0.00 | 0.00 | 37 | 1010.4 |
| 20260503212624 | 80 | 179 | 2.0 | 5.0 | 0.00 | 0.00 | 0.00 | 35 | 1011.1 |
| 20260503211622 | 80 | 125 | 2.0 | 4.0 | 0.00 | 0.00 | 0.00 | 38 | 1011.1 |
| 20260503210623 | 80 | 178 | 0.0 | 2.0 | 0.00 | 0.00 | 0.00 | 39 | 1011.4 |
| 20260503205624 | 79 | 161 | 0.0 | 2.0 | 0.00 | 0.00 | 0.00 | 38 | 1011.4 |
| 20260503204624 | 79 | 165 | 2.0 | 7.0 | 0.00 | 0.00 | 0.00 | 34 | 1011.1 |
| 20260503203722 | 80 | 112 | 0.0 | 0.0 | 0.00 | 0.00 | 0.00 | 37 | 1011.4 |
| 20260503202723 | 79 | 270 | 0.0 | 2.0 | 0.00 | 0.00 | 0.00 | 38 | 1012.1 |
| 20260503201724 | 79 | 159 | 0.0 | 3.0 | 0.00 | 0.00 | 0.00 | 38 | 1012.4 |
| 20260503200725 | 79 | 180 | 0.0 | 4.0 | 0.00 | 0.00 | 0.00 | 37 | 1012.4 |
| 20260503195823 | 79 | 168 | 2.0 | 6.0 | 0.00 | 0.00 | 0.00 | 34 | 1012.4 |
| 20260503194922 | 78 | 135 | 1.0 | 3.0 | 0.00 | 0.00 | 0.00 | 38 | 1012.8 |
| 20260503192926 | 79 | 176 | 0.0 | 2.0 | 0.00 | 0.00 | 0.00 | 38 | 1012.8 |
| 20260503192022 | 78 | 181 | 0.0 | 3.0 | 0.00 | 0.00 | 0.00 | 40 | 1013.2 |
| 20260503191024 | 78 | 171 | 2.0 | 5.0 | 0.00 | 0.00 | 0.00 | 39 | 1013.5 |
| 20260503190022 | 78 | 146 | 2.0 | 5.0 | 0.00 | 0.00 | 0.00 | 39 | 1013.2 |
| 20260503185023 | 78 | 135 | 0.0 | 0.0 | 0.00 | 0.00 | 0.00 | 39 | 1013.5 |
| 20260503183024 | 77 | 177 | 2.0 | 7.0 | 0.00 | 0.00 | 0.00 | 39 | 1014.2 |
| 20260503182025 | 78 | 142 | 1.0 | 3.0 | 0.00 | 0.00 | 0.00 | 40 | 1014.2 |
| 20260503181026 | 78 | 179 | 0.0 | 4.0 | 0.00 | 0.00 | 0.00 | 41 | 1014.2 |
| 20260503175125 | 77 | 164 | 2.0 | 6.0 | 0.00 | 0.00 | 0.00 | 42 | 1014.9 |
| 20260503174123 | 76 | 170 | 3.0 | 8.0 | 0.00 | 0.00 | 0.00 | 43 | 1015.2 |
| 20260503172222 | 76 | 135 | 0.0 | 2.0 | 0.00 | 0.00 | 0.00 | 45 | 1015.2 |
| 20260503171224 | 76 | 180 | 0.0 | 0.0 | 0.00 | 0.00 | 0.00 | 43 | 1015.6 |
| 20260503170225 | 76 | 170 | 4.0 | 7.0 | 0.00 | 0.00 | 0.00 | 45 | 1015.6 |
| 20260503130922 | 55 | 337 | 0.0 | 0.0 | 0.00 | 0.00 | 0.00 | 98 | 1016.9 |
| 20260503110123 | 49 | 45 | 0.0 | 0.0 | 0.00 | 0.00 | 0.00 | 73 | 1017.3 |
| 20260503090421 | 49 | 45 | 0.0 | 0.0 | 0.00 | 0.00 | 0.00 | 91 | 1016.6 |
| 20260503081423 | 50 | 45 | 0.0 | 0.0 | 0.00 | 0.00 | 0.00 | 92 | 1016.6 |
| 20260503072423 | 51 | 45 | 0.0 | 0.0 | 0.00 | 0.00 | 0.00 | 95 | 1016.9 |
| 20260503070522 | 52 | 45 | 0.0 | 0.0 | 0.00 | 0.00 | 0.00 | 97 | 1016.9 |
| 20260503053722 | 53 | 45 | 0.0 | 0.0 | 0.00 | 0.00 | 0.00 | 97 | 1016.9 |
| 20260503052722 | 54 | 45 | 0.0 | 0.0 | 0.00 | 0.00 | 0.00 | 98 | 1016.9 |
| 20260503051725 | 54 | 45 | 0.0 | 0.0 | 0.00 | 0.00 | 0.00 | 97 | 1016.9 |
| 20260503050822 | 54 | 45 | 0.0 | 0.0 | 0.00 | 0.00 | 0.00 | 96 | 1017.3 |
| 20260503045832 | 54 | 45 | 0.0 | 0.0 | 0.00 | 0.00 | 0.00 | 95 | 1016.6 |
| 20260503043836 | 55 | 45 | 0.0 | 0.0 | 0.00 | 0.00 | 0.00 | 92 | 1016.9 |
| 20260503042934 | 55 | 45 | 0.0 | 0.0 | 0.00 | 0.00 | 0.00 | 91 | 1016.6 |
| 20260503040935 | 55 | 45 | 0.0 | 0.0 | 0.00 | 0.00 | 0.00 | 88 | 1016.6 |
| 20260503035933 | 56 | 45 | 0.0 | 0.0 | 0.00 | 0.00 | 0.00 | 84 | 1016.6 |
| 20260503034034 | 57 | 45 | 0.0 | 0.0 | 0.00 | 0.00 | 0.00 | 82 | 1015.9 |
| 20260503032034 | 57 | 45 | 0.0 | 0.0 | 0.00 | 0.00 | 0.00 | 78 | 1016.3 |
| 20260503031133 | 58 | 45 | 0.0 | 0.0 | 0.00 | 0.00 | 0.00 | 77 | 1015.9 |
| 20260503030134 | 59 | 45 | 0.0 | 0.0 | 0.00 | 0.00 | 0.00 | 76 | 1015.9 |
| 20260503025136 | 59 | 45 | 0.0 | 0.0 | 0.00 | 0.00 | 0.00 | 71 | 1015.6 |
| 20260503023236 | 60 | 45 | 0.0 | 0.0 | 0.00 | 0.00 | 0.00 | 69 | 1015.2 |
| 20260503022235 | 61 | 45 | 0.0 | 0.0 | 0.00 | 0.00 | 0.00 | 65 | 1014.9 |
| 20260503021236 | 62 | 45 | 0.0 | 0.0 | 0.00 | 0.00 | 0.00 | 62 | 1014.5 |
| 20260503015234 | 62 | 45 | 0.0 | 0.0 | 0.00 | 0.00 | 0.00 | 56 | 1014.5 |
| 20260503014233 | 64 | 45 | 0.0 | 0.0 | 0.00 | 0.00 | 0.00 | 55 | 1014.5 |
| 20260503012236 | 67 | 45 | 0.0 | 0.0 | 0.00 | 0.00 | 0.00 | 52 | 1013.9 |
| 20260503010433 | 68 | 45 | 0.0 | 0.0 | 0.00 | 0.00 | 0.00 | 50 | 1013.9 |
| 20260503005434 | 70 | 45 | 0.0 | 0.0 | 0.00 | 0.00 | 0.00 | 48 | 1013.9 |
| 20260503004434 | 70 | 45 | 0.0 | 0.0 | 0.00 | 0.00 | 0.00 | 45 | 1013.9 |
| 20260503003436 | 72 | 135 | 0.0 | 0.0 | 0.00 | 0.00 | 0.00 | 45 | 1013.5 |
| 20260503002435 | 73 | 67 | 0.0 | 0.0 | 0.00 | 0.00 | 0.00 | 46 | 1013.5 |
| 20260503001435 | 74 | 67 | 0.0 | 3.0 | 0.00 | 0.00 | 0.00 | 43 | 1013.2 |
| 20260502235535 | 74 | 67 | 0.0 | 0.0 | 0.00 | 0.02 | 0.00 | 41 | 1012.8 |
| 20260502234537 | 75 | 22 | 0.0 | 0.0 | 0.00 | 0.03 | 0.00 | 44 | 1013.2 |
| 20260502232635 | 76 | 4 | 0.0 | 5.0 | 0.00 | 0.03 | 0.00 | 42 | 1012.8 |